Wetterdaten: Mittwoch, 15.05.2013
Datum Zeit Temperatur Luftfeuchte Luftdruck Regen Wind Richtung Richtung Taupunkt Windchill Windben
15.05.2013 00:00 8,8 C 85 % 1009,9 hPa 0,0 l/m 0,5 km/h (0 Bft) O-NO 67 6,4 C 8,2 C 0,0 km/h (0 Bft)
15.05.2013 00:05 8,6 C 85 % 1009,7 hPa 0,0 l/m 0,2 km/h (0 Bft) NO 45 6,2 C 8,1 C 0,0 km/h (0 Bft)
15.05.2013 00:10 7,9 C 85 % 1009,7 hPa 0,0 l/m 0,2 km/h (0 Bft) S 180 5,5 C 7,8 C 0,0 km/h (0 Bft)
15.05.2013 00:15 7,8 C 85 % 1009,7 hPa 0,0 l/m 0,5 km/h (0 Bft) SO 135 5,4 C 7,8 C 0,0 km/h (0 Bft)
15.05.2013 00:20 7,9 C 86 % 1009,7 hPa 0,0 l/m 1,0 km/h (0 Bft) O-NO 67 5,7 C 7,6 C 2,3 km/h (1 Bft)
15.05.2013 00:25 8,1 C 88 % 1009,6 hPa 0,0 l/m 1,3 km/h (1 Bft) NO 45 6,2 C 7,6 C 4,3 km/h (1 Bft)
15.05.2013 00:30 8,3 C 89 % 1009,6 hPa 0,0 l/m 2,4 km/h (1 Bft) N-NO 22 6,6 C 7,8 C 2,7 km/h (1 Bft)
15.05.2013 00:35 8,5 C 89 % 1009,6 hPa 0,0 l/m 2,3 km/h (1 Bft) N 360 6,8 C 7,8 C 2,3 km/h (1 Bft)
15.05.2013 00:40 8,1 C 89 % 1009,6 hPa 0,0 l/m 0,8 km/h (0 Bft) O 90 6,4 C 7,8 C 2,6 km/h (1 Bft)
15.05.2013 00:45 8,1 C 89 % 1009,4 hPa 0,0 l/m 0,6 km/h (0 Bft) W-SW 247 6,4 C 7,8 C 0,0 km/h (0 Bft)
15.05.2013 00:50 7,5 C 89 % 1009,4 hPa 0,0 l/m 0,5 km/h (0 Bft) NO 45 5,8 C 7,6 C 2,1 km/h (1 Bft)
15.05.2013 00:55 7,4 C 89 % 1009,4 hPa 0,0 l/m 0,2 km/h (0 Bft) N-NO 22 5,7 C 7,3 C 0,0 km/h (0 Bft)
15.05.2013 01:00 7,6 C 90 % 1009,4 hPa 0,0 l/m 0,5 km/h (0 Bft) N-NO 22 6,1 C 7,3 C 0,0 km/h (0 Bft)
15.05.2013 01:05 7,5 C 90 % 1009,4 hPa 0,0 l/m 0,5 km/h (0 Bft) S 180 6,0 C 7,4 C 0,0 km/h (0 Bft)
15.05.2013 01:10 7,5 C 90 % 1009,4 hPa 0,0 l/m 0,2 km/h (0 Bft) O 90 6,0 C 7,3 C 0,0 km/h (0 Bft)
15.05.2013 01:15 7,5 C 90 % 1009,4 hPa 0,0 l/m 0,3 km/h (0 Bft) O 90 6,0 C 7,3 C 0,0 km/h (0 Bft)
15.05.2013 01:20 7,7 C 91 % 1009,4 hPa 0,0 l/m 0,5 km/h (0 Bft) W-SW 247 6,3 C 7,6 C 0,0 km/h (0 Bft)
15.05.2013 01:25 7,7 C 91 % 1009,1 hPa 0,0 l/m 0,8 km/h (0 Bft) S-SW 202 6,3 C 7,6 C 2,7 km/h (1 Bft)
15.05.2013 01:30 7,5 C 91 % 1009,1 hPa 0,0 l/m 1,0 km/h (0 Bft) S-SW 202 6,1 C 7,5 C 2,1 km/h (1 Bft)
15.05.2013 01:35 7,3 C 90 % 1009,1 hPa 0,0 l/m 0,8 km/h (0 Bft) N-NO 22 5,8 C 7,4 C 0,0 km/h (0 Bft)
15.05.2013 01:40 7,3 C 91 % 1009,1 hPa 0,0 l/m 0,3 km/h (0 Bft) N 360 5,9 C 7,1 C 0,0 km/h (0 Bft)
15.05.2013 01:45 7,3 C 91 % 1009,3 hPa 0,0 l/m 0,3 km/h (0 Bft) O-SO 112 5,9 C 7,0 C 0,0 km/h (0 Bft)
15.05.2013 01:50 7,0 C 91 % 1009,3 hPa 0,0 l/m 0,3 km/h (0 Bft) O-SO 112 5,6 C 6,9 C 0,0 km/h (0 Bft)
15.05.2013 01:55 7,0 C 91 % 1009,3 hPa 0,0 l/m 0,0 km/h (0 Bft) NO 45 5,6 C 6,7 C 0,0 km/h (0 Bft)
15.05.2013 02:00 6,6 C 91 % 1009,3 hPa 0,0 l/m 0,0 km/h (0 Bft) S-SW 202 5,2 C 6,6 C 0,0 km/h (0 Bft)
15.05.2013 02:05 6,7 C 91 % 1008,6 hPa 0,0 l/m 0,0 km/h (0 Bft) O-SO 112 5,3 C 6,4 C 0,0 km/h (0 Bft)
15.05.2013 02:10 6,4 C 90 % 1008,6 hPa 0,0 l/m 0,0 km/h (0 Bft) N 360 4,9 C 6,2 C 0,0 km/h (0 Bft)
15.05.2013 02:15 6,4 C 90 % 1008,6 hPa 0,0 l/m 0,0 km/h (0 Bft) NO 45 4,9 C 6,1 C 0,0 km/h (0 Bft)
15.05.2013 02:20 6,5 C 90 % 1008,6 hPa 0,0 l/m 0,3 km/h (0 Bft) O-SO 112 5,0 C 6,0 C 2,7 km/h (1 Bft)
15.05.2013 02:25 6,6 C 91 % 1008,4 hPa 0,0 l/m 1,0 km/h (0 Bft) NO 45 5,2 C 6,1 C 0,0 km/h (0 Bft)
15.05.2013 02:30 6,4 C 90 % 1008,4 hPa 0,0 l/m 1,0 km/h (0 Bft) O-NO 67 4,9 C 6,1 C 2,1 km/h (1 Bft)
15.05.2013 02:35 6,5 C 91 % 1008,4 hPa 0,0 l/m 0,6 km/h (0 Bft) O-NO 67 5,1 C 6,1 C 1,6 km/h (1 Bft)
15.05.2013 02:40 6,2 C 90 % 1008,4 hPa 0,0 l/m 0,6 km/h (0 Bft) S 180 4,7 C 6,2 C 0,0 km/h (0 Bft)
15.05.2013 02:45 6,0 C 90 % 1008,2 hPa 0,0 l/m 0,5 km/h (0 Bft) N-NO 22 4,5 C 6,1 C 0,0 km/h (0 Bft)
15.05.2013 02:50 5,9 C 92 % 1008,2 hPa 0,0 l/m 0,3 km/h (0 Bft) S-SW 202 4,7 C 5,9 C 0,0 km/h (0 Bft)
15.05.2013 02:55 5,8 C 92 % 1008,2 hPa 0,0 l/m 0,2 km/h (0 Bft) O-NO 67 4,6 C 5,7 C 0,0 km/h (0 Bft)
15.05.2013 03:00 5,8 C 92 % 1008,2 hPa 0,0 l/m 0,2 km/h (0 Bft) N-NW 337 4,6 C 5,6 C 0,0 km/h (0 Bft)
15.05.2013 03:05 5,8 C 92 % 1007,8 hPa 0,0 l/m 0,0 km/h (0 Bft) N 360 4,6 C 5,6 C 0,0 km/h (0 Bft)
15.05.2013 03:10 5,8 C 92 % 1007,8 hPa 0,0 l/m 0,5 km/h (0 Bft) S 180 4,6 C 5,7 C 1,6 km/h (1 Bft)
15.05.2013 03:15 5,8 C 93 % 1007,8 hPa 0,0 l/m 0,5 km/h (0 Bft) O 90 4,8 C 5,7 C 0,0 km/h (0 Bft)
15.05.2013 03:20 5,4 C 92 % 1007,8 hPa 0,0 l/m 0,0 km/h (0 Bft) S 180 4,2 C 5,5 C 0,0 km/h (0 Bft)
15.05.2013 03:25 5,4 C 92 % 1007,8 hPa 0,0 l/m 0,0 km/h (0 Bft) O 90 4,2 C 5,4 C 0,0 km/h (0 Bft)
15.05.2013 03:30 5,5 C 92 % 1007,8 hPa 0,0 l/m 0,0 km/h (0 Bft) N 360 4,3 C 5,2 C 0,0 km/h (0 Bft)
15.05.2013 03:35 5,3 C 92 % 1007,8 hPa 0,0 l/m 0,2 km/h (0 Bft) N 360 4,1 C 5,2 C 0,0 km/h (0 Bft)
15.05.2013 03:40 5,2 C 92 % 1007,8 hPa 0,0 l/m 0,2 km/h (0 Bft) N-NW 337 4,0 C 5,1 C 0,0 km/h (0 Bft)
15.05.2013 03:45 5,1 C 92 % 1007,6 hPa 0,0 l/m 0,2 km/h (0 Bft) N 360 3,9 C 5,2 C 0,0 km/h (0 Bft)
15.05.2013 03:50 5,0 C 92 % 1007,6 hPa 0,0 l/m 0,2 km/h (0 Bft) N-NW 337 3,8 C 5,1 C 0,0 km/h (0 Bft)
15.05.2013 03:55 5,1 C 92 % 1007,6 hPa 0,0 l/m 0,0 km/h (0 Bft) N-NO 22 3,9 C 4,8 C 0,0 km/h (0 Bft)
15.05.2013 04:00 5,3 C 93 % 1007,6 hPa 0,0 l/m 0,2 km/h (0 Bft) NO 45 4,3 C 4,9 C 0,0 km/h (0 Bft)
15.05.2013 04:05 5,1 C 93 % 1007,4 hPa 0,0 l/m 0,0 km/h (0 Bft) N-NW 337 4,1 C 4,9 C 0,0 km/h (0 Bft)
15.05.2013 04:10 5,0 C 92 % 1007,4 hPa 0,0 l/m 1,0 km/h (0 Bft) S-SO 157 3,8 C 4,9 C 1,8 km/h (1 Bft)
15.05.2013 04:15 5,1 C 93 % 1007,4 hPa 0,0 l/m 1,1 km/h (1 Bft) NO 45 4,1 C 4,9 C 2,9 km/h (1 Bft)
15.05.2013 04:20 5,1 C 93 % 1007,4 hPa 0,0 l/m 0,8 km/h (0 Bft) N-NO 22 4,1 C 5,1 C 1,8 km/h (1 Bft)
15.05.2013 04:25 5,1 C 93 % 1007,2 hPa 0,0 l/m 1,3 km/h (1 Bft) S 180 4,1 C 5,1 C 5,5 km/h (1 Bft)
15.05.2013 04:30 5,1 C 93 % 1007,2 hPa 0,0 l/m 1,3 km/h (1 Bft) O 90 4,1 C 5,0 C 5,8 km/h (2 Bft)
15.05.2013 04:35 5,5 C 94 % 1007,2 hPa 0,0 l/m 1,4 km/h (1 Bft) NO 45 4,6 C 5,0 C 2,6 km/h (1 Bft)
15.05.2013 04:40 5,4 C 94 % 1007,2 hPa 0,0 l/m 0,8 km/h (0 Bft) O-NO 67 4,5 C 5,2 C 0,0 km/h (0 Bft)
15.05.2013 04:45 5,1 C 94 % 1007,2 hPa 0,0 l/m 0,3 km/h (0 Bft) N-NO 22 4,2 C 5,2 C 0,0 km/h (0 Bft)
15.05.2013 04:50 5,2 C 94 % 1007,2 hPa 0,0 l/m 0,5 km/h (0 Bft) O 90 4,3 C 5,2 C 2,6 km/h (1 Bft)
15.05.2013 04:55 5,8 C 94 % 1007,2 hPa 0,0 l/m 1,1 km/h (1 Bft) O 90 4,9 C 5,2 C 7,1 km/h (2 Bft)
15.05.2013 05:00 6,7 C 93 % 1007,2 hPa 0,0 l/m 3,2 km/h (1 Bft) SW 225 5,6 C 5,6 C 0,0 km/h (0 Bft)
15.05.2013 05:05 5,3 C 93 % 1007,1 hPa 0,0 l/m 3,2 km/h (1 Bft) NO 45 4,3 C 5,3 C 0,0 km/h (0 Bft)
15.05.2013 05:10 4,8 C 93 % 1007,1 hPa 0,0 l/m 1,1 km/h (1 Bft) O-NO 67 3,8 C 4,8 C 1,6 km/h (1 Bft)
15.05.2013 05:15 5,2 C 93 % 1007,1 hPa 0,0 l/m 0,5 km/h (0 Bft) O 90 4,2 C 4,8 C 0,0 km/h (0 Bft)
15.05.2013 05:20 4,9 C 93 % 1007,1 hPa 0,0 l/m 0,8 km/h (0 Bft) SO 135 3,9 C 4,9 C 1,9 km/h (1 Bft)
15.05.2013 05:25 4,9 C 93 % 1006,9 hPa 0,0 l/m 0,8 km/h (0 Bft) SO 135 3,9 C 4,8 C 1,8 km/h (1 Bft)
15.05.2013 05:30 5,3 C 93 % 1006,9 hPa 0,0 l/m 0,5 km/h (0 Bft) O-SO 112 4,3 C 4,9 C 1,8 km/h (1 Bft)
15.05.2013 05:35 4,6 C 92 % 1006,9 hPa 0,0 l/m 1,1 km/h (1 Bft) O-SO 112 3,4 C 4,8 C 3,1 km/h (1 Bft)
15.05.2013 05:40 5,0 C 92 % 1006,9 hPa 0,0 l/m 1,6 km/h (1 Bft) O-NO 67 3,8 C 4,6 C 0,0 km/h (0 Bft)
15.05.2013 05:45 4,7 C 92 % 1007,1 hPa 0,0 l/m 1,4 km/h (1 Bft) O-NO 67 3,5 C 4,6 C 2,6 km/h (1 Bft)
15.05.2013 05:50 5,0 C 92 % 1007,1 hPa 0,0 l/m 0,8 km/h (0 Bft) SO 135 3,8 C 4,8 C 0,0 km/h (0 Bft)
15.05.2013 05:55 5,3 C 92 % 1007,1 hPa 0,0 l/m 0,6 km/h (0 Bft) W-SW 247 4,1 C 4,9 C 3,2 km/h (1 Bft)
15.05.2013 06:00 5,0 C 91 % 1007,1 hPa 0,0 l/m 0,8 km/h (0 Bft) O-NO 67 3,7 C 4,9 C 3,1 km/h (1 Bft)
15.05.2013 06:05 5,7 C 91 % 1007,2 hPa 0,0 l/m 1,6 km/h (1 Bft) O-NO 67 4,3 C 5,0 C 2,7 km/h (1 Bft)
15.05.2013 06:10 6,8 C 90 % 1007,2 hPa 0,0 l/m 2,3 km/h (1 Bft) NO 45 5,3 C 5,4 C 2,1 km/h (1 Bft)
15.05.2013 06:15 7,5 C 89 % 1007,2 hPa 0,0 l/m 1,9 km/h (1 Bft) NO 45 5,8 C 5,7 C 2,4 km/h (1 Bft)
15.05.2013 06:20 7,9 C 87 % 1007,2 hPa 0,0 l/m 1,3 km/h (1 Bft) O-SO 112 5,9 C 6,4 C 0,0 km/h (0 Bft)
15.05.2013 06:25 7,0 C 86 % 1007,3 hPa 0,0 l/m 1,1 km/h (1 Bft) S 180 4,8 C 6,6 C 3,4 km/h (1 Bft)
15.05.2013 06:30 6,8 C 85 % 1007,3 hPa 0,0 l/m 1,6 km/h (1 Bft) NO 45 4,5 C 7,0 C 1,6 km/h (1 Bft)
15.05.2013 06:35 9,0 C 85 % 1007,3 hPa 0,0 l/m 1,3 km/h (1 Bft) O-SO 112 6,6 C 8,3 C 0,0 km/h (0 Bft)
15.05.2013 06:40 11,1 C 81 % 1007,3 hPa 0,0 l/m 0,3 km/h (0 Bft) O 90 8,0 C 10,1 C 0,0 km/h (0 Bft)
15.05.2013 06:45 11,1 C 74 % 1007,2 hPa 0,0 l/m 0,8 km/h (0 Bft) NO 45 6,6 C 10,6 C 1,9 km/h (1 Bft)
15.05.2013 06:50 13,8 C 76 % 1007,2 hPa 0,0 l/m 0,6 km/h (0 Bft) O-SO 112 9,6 C 12,2 C 0,0 km/h (0 Bft)
15.05.2013 06:55 14,3 C 73 % 1007,2 hPa 0,0 l/m 0,2 km/h (0 Bft) SO 135 9,5 C 13,4 C 0,0 km/h (0 Bft)
15.05.2013 07:00 14,5 C 69 % 1007,2 hPa 0,0 l/m 0,2 km/h (0 Bft) SO 135 8,9 C 14,3 C 2,1 km/h (1 Bft)
15.05.2013 07:05 13,8 C 64 % 1007,3 hPa 0,0 l/m 0,8 km/h (0 Bft) O 90 7,1 C 14,3 C 1,6 km/h (1 Bft)
15.05.2013 07:10 15,8 C 61 % 1007,3 hPa 0,0 l/m 1,3 km/h (1 Bft) O 90 8,3 C 15,1 C 5,1 km/h (1 Bft)
15.05.2013 07:15 16,7 C 54 % 1007,3 hPa 0,0 l/m 2,1 km/h (1 Bft) O 90 7,3 C 15,7 C 3,4 km/h (1 Bft)
15.05.2013 07:20 17,6 C 48 % 1007,3 hPa 0,0 l/m 3,1 km/h (1 Bft) O 90 6,5 C 16,7 C 2,1 km/h (1 Bft)
15.05.2013 07:25 18,2 C 50 % 1007,2 hPa 0,0 l/m 2,6 km/h (1 Bft) O 90 7,6 C 17,5 C 3,4 km/h (1 Bft)
15.05.2013 07:30 18,6 C 47 % 1007,2 hPa 0,0 l/m 2,6 km/h (1 Bft) O-NO 67 7,1 C 18,3 C 3,7 km/h (1 Bft)
15.05.2013 07:35 19,0 C 46 % 1007,2 hPa 0,0 l/m 2,9 km/h (1 Bft) N 360 7,1 C 18,8 C 2,4 km/h (1 Bft)
15.05.2013 07:40 19,7 C 44 % 1007,2 hPa 0,0 l/m 2,7 km/h (1 Bft) S-SW 202 7,1 C 19,6 C 2,6 km/h (1 Bft)
15.05.2013 07:45 20,4 C 45 % 1007,2 hPa 0,0 l/m 2,1 km/h (1 Bft) SO 135 8,1 C 19,9 C 2,9 km/h (1 Bft)
15.05.2013 07:50 21,3 C 44 % 1007,2 hPa 0,0 l/m 1,6 km/h (1 Bft) W 270 8,5 C 20,6 C 1,6 km/h (1 Bft)
15.05.2013 07:55 20,9 C 40 % 1007,2 hPa 0,0 l/m 1,6 km/h (1 Bft) O 90 6,8 C 21,1 C 2,3 km/h (1 Bft)
15.05.2013 08:00 22,7 C 40 % 1007,2 hPa 0,0 l/m 1,1 km/h (1 Bft) O 90 8,4 C 21,8 C 1,8 km/h (1 Bft)
15.05.2013 08:05 22,7 C 38 % 1007,1 hPa 0,0 l/m 1,6 km/h (1 Bft) S-SW 202 7,6 C 22,1 C 2,9 km/h (1 Bft)
15.05.2013 08:10 22,2 C 39 % 1007,1 hPa 0,0 l/m 1,9 km/h (1 Bft) O-SO 112 7,6 C 22,4 C 0,0 km/h (0 Bft)
15.05.2013 08:15 23,3 C 39 % 1007,1 hPa 0,0 l/m 1,4 km/h (1 Bft) N-NO 22 8,6 C 22,8 C 0,0 km/h (0 Bft)
15.05.2013 08:20 23,2 C 36 % 1007,1 hPa 0,0 l/m 0,8 km/h (0 Bft) SO 135 7,3 C 23,2 C 1,6 km/h (1 Bft)
15.05.2013 08:25 23,0 C 35 % 1007,3 hPa 0,0 l/m 0,8 km/h (0 Bft) O 90 6,7 C 24,1 C 2,3 km/h (1 Bft)
15.05.2013 08:30 23,3 C 34 % 1007,3 hPa 0,0 l/m 1,4 km/h (1 Bft) N-NO 22 6,6 C 24,0 C 5,3 km/h (1 Bft)
15.05.2013 08:35 23,1 C 35 % 1007,3 hPa 0,0 l/m 2,4 km/h (1 Bft) N 360 6,8 C 23,9 C 3,4 km/h (1 Bft)
15.05.2013 08:40 23,9 C 34 % 1007,3 hPa 0,0 l/m 2,1 km/h (1 Bft) N-NW 337 7,1 C 24,2 C 1,9 km/h (1 Bft)
15.05.2013 08:45 24,6 C 34 % 1007,1 hPa 0,0 l/m 1,4 km/h (1 Bft) N 360 7,7 C 24,5 C 1,8 km/h (1 Bft)
15.05.2013 08:50 23,9 C 30 % 1007,1 hPa 0,0 l/m 1,8 km/h (1 Bft) N-NO 22 5,3 C 24,6 C 0,0 km/h (0 Bft)
15.05.2013 08:55 24,4 C 32 % 1007,1 hPa 0,0 l/m 1,9 km/h (1 Bft) W 270 6,6 C 25,0 C 2,9 km/h (1 Bft)
15.05.2013 09:00 24,4 C 29 % 1007,1 hPa 0,0 l/m 1,6 km/h (1 Bft) O-NO 67 5,2 C 25,4 C 3,1 km/h (1 Bft)
15.05.2013 09:05 24,5 C 29 % 1007,2 hPa 0,0 l/m 2,1 km/h (1 Bft) NO 45 5,3 C 25,4 C 2,4 km/h (1 Bft)
15.05.2013 09:10 24,1 C 25 % 1007,2 hPa 0,0 l/m 2,3 km/h (1 Bft) S 180 2,8 C 25,8 C 6,4 km/h (2 Bft)
15.05.2013 09:15 23,7 C 30 % 1007,2 hPa 0,0 l/m 2,6 km/h (1 Bft) S-SW 202 5,1 C 25,2 C 4,3 km/h (1 Bft)
15.05.2013 09:20 24,5 C 30 % 1007,2 hPa 0,0 l/m 2,6 km/h (1 Bft) NO 45 5,8 C 25,3 C 2,1 km/h (1 Bft)
15.05.2013 09:25 25,5 C 30 % 1007,1 hPa 0,0 l/m 2,1 km/h (1 Bft) S-SW 202 6,6 C 25,8 C 3,1 km/h (1 Bft)
15.05.2013 09:30 26,0 C 27 % 1007,1 hPa 0,0 l/m 2,9 km/h (1 Bft) SO 135 5,5 C 25,8 C 8,0 km/h (2 Bft)
15.05.2013 09:35 25,5 C 28 % 1007,1 hPa 0,0 l/m 3,2 km/h (1 Bft) S 180 5,6 C 26,1 C 4,2 km/h (1 Bft)
15.05.2013 09:40 25,1 C 21 % 1007,1 hPa 0,0 l/m 3,1 km/h (1 Bft) S 180 1,2 C 26,0 C 6,0 km/h (2 Bft)
15.05.2013 09:45 24,4 C 23 % 1007,2 hPa 0,0 l/m 3,5 km/h (1 Bft) N 360 1,9 C 25,8 C 3,1 km/h (1 Bft)
15.05.2013 09:50 24,4 C 24 % 1007,2 hPa 0,0 l/m 3,9 km/h (1 Bft) N-NW 337 2,5 C 25,7 C 9,3 km/h (2 Bft)
15.05.2013 09:55 25,0 C 23 % 1007,2 hPa 0,0 l/m 3,1 km/h (1 Bft) SO 135 2,4 C 25,9 C 4,0 km/h (1 Bft)
15.05.2013 10:00 24,5 C 25 % 1007,2 hPa 0,0 l/m 3,1 km/h (1 Bft) NW 315 3,2 C 26,0 C 5,5 km/h (1 Bft)
15.05.2013 10:05 25,0 C 26 % 1007,4 hPa 0,0 l/m 3,4 km/h (1 Bft) SO 135 4,2 C 25,7 C 0,0 km/h (0 Bft)
15.05.2013 10:10 24,2 C 24 % 1007,4 hPa 0,0 l/m 2,9 km/h (1 Bft) W 270 2,4 C 26,4 C 4,3 km/h (1 Bft)
15.05.2013 10:15 23,5 C 25 % 1007,4 hPa 0,0 l/m 2,9 km/h (1 Bft) W-NW 292 2,3 C 26,0 C 3,9 km/h (1 Bft)
15.05.2013 10:20 24,4 C 27 % 1007,4 hPa 0,0 l/m 2,9 km/h (1 Bft) N 360 4,2 C 26,0 C 0,0 km/h (0 Bft)
15.05.2013 10:25 23,9 C 24 % 1007,7 hPa 0,0 l/m 3,1 km/h (1 Bft) N-NO 22 2,1 C 26,2 C 8,9 km/h (2 Bft)
15.05.2013 10:30 23,3 C 24 % 1007,7 hPa 0,0 l/m 4,0 km/h (1 Bft) N-NW 337 1,6 C 25,6 C 12,4 km/h (3 Bft)
15.05.2013 10:35 23,6 C 25 % 1007,7 hPa 0,0 l/m 4,7 km/h (1 Bft) S 180 2,4 C 25,4 C 5,3 km/h (1 Bft)
15.05.2013 10:40 23,8 C 23 % 1007,7 hPa 0,0 l/m 4,3 km/h (1 Bft) S 180 1,4 C 25,5 C 4,5 km/h (1 Bft)
15.05.2013 10:45 23,1 C 22 % 1007,7 hPa 0,0 l/m 4,3 km/h (1 Bft) NW 315 0,2 C 25,7 C 6,4 km/h (2 Bft)
15.05.2013 10:50 24,1 C 28 % 1007,7 hPa 0,0 l/m 3,2 km/h (1 Bft) N-NW 337 4,4 C 25,8 C 3,4 km/h (1 Bft)
15.05.2013 10:55 23,4 C 22 % 1007,7 hPa 0,0 l/m 4,2 km/h (1 Bft) N-NW 337 0,5 C 25,8 C 5,1 km/h (1 Bft)
15.05.2013 11:00 23,2 C 23 % 1007,7 hPa 0,0 l/m 5,0 km/h (1 Bft) W-NW 292 0,9 C 25,2 C 4,3 km/h (1 Bft)
15.05.2013 11:05 25,1 C 23 % 1007,8 hPa 0,0 l/m 4,5 km/h (1 Bft) S 180 2,5 C 25,4 C 5,5 km/h (1 Bft)
15.05.2013 11:10 25,5 C 23 % 1007,8 hPa 0,0 l/m 3,1 km/h (1 Bft) S-SO 157 2,8 C 26,4 C 7,7 km/h (2 Bft)
15.05.2013 11:15 26,0 C 24 % 1007,8 hPa 0,0 l/m 2,9 km/h (1 Bft) S-SO 157 3,9 C 26,7 C 6,1 km/h (2 Bft)
15.05.2013 11:20 26,1 C 23 % 1007,8 hPa 0,0 l/m 3,4 km/h (1 Bft) W-SW 247 3,3 C 26,9 C 2,3 km/h (1 Bft)
15.05.2013 11:25 25,5 C 21 % 1007,9 hPa 0,0 l/m 4,5 km/h (1 Bft) O-SO 112 1,6 C 26,9 C 9,2 km/h (2 Bft)
15.05.2013 11:30 25,9 C 22 % 1007,9 hPa 0,0 l/m 5,0 km/h (1 Bft) N-NO 22 2,5 C 26,3 C 4,3 km/h (1 Bft)
15.05.2013 11:35 26,2 C 25 % 1007,9 hPa 0,0 l/m 4,3 km/h (1 Bft) O-SO 112 4,6 C 26,1 C 4,8 km/h (1 Bft)
15.05.2013 11:40 26,0 C 23 % 1007,9 hPa 0,0 l/m 4,2 km/h (1 Bft) W-SW 247 3,3 C 25,8 C 13,0 km/h (3 Bft)
15.05.2013 11:45 26,1 C 23 % 1007,8 hPa 0,0 l/m 3,9 km/h (1 Bft) S-SW 202 3,3 C 25,9 C 4,0 km/h (1 Bft)
15.05.2013 11:50 26,1 C 23 % 1007,8 hPa 0,0 l/m 3,1 km/h (1 Bft) NW 315 3,3 C 26,3 C 2,4 km/h (1 Bft)
15.05.2013 11:55 26,5 C 23 % 1007,8 hPa 0,0 l/m 3,7 km/h (1 Bft) O-SO 112 3,7 C 26,7 C 6,0 km/h (2 Bft)
15.05.2013 12:00 26,2 C 23 % 1007,8 hPa 0,0 l/m 3,5 km/h (1 Bft) W 270 3,4 C 27,1 C 5,5 km/h (1 Bft)
15.05.2013 12:05 26,3 C 22 % 1007,9 hPa 0,0 l/m 4,0 km/h (1 Bft) SO 135 2,9 C 27,3 C 10,8 km/h (2 Bft)
15.05.2013 12:10 26,0 C 22 % 1007,9 hPa 0,0 l/m 5,6 km/h (1 Bft) SO 135 2,6 C 27,1 C 14,3 km/h (3 Bft)
15.05.2013 12:15 25,7 C 21 % 1007,9 hPa 0,0 l/m 6,8 km/h (2 Bft) O-SO 112 1,7 C 26,7 C 5,8 km/h (2 Bft)
15.05.2013 12:20 25,5 C 20 % 1007,9 hPa 0,0 l/m 5,6 km/h (1 Bft) W 270 0,9 C 26,9 C 15,9 km/h (3 Bft)
15.05.2013 12:25 24,0 C 24 % 1008,0 hPa 0,0 l/m 4,5 km/h (1 Bft) S 180 2,2 C 26,7 C 4,5 km/h (1 Bft)
15.05.2013 12:30 24,5 C 24 % 1008,0 hPa 0,0 l/m 4,5 km/h (1 Bft) N 360 2,6 C 26,0 C 0,0 km/h (0 Bft)
15.05.2013 12:35 25,6 C 22 % 1008,0 hPa 0,0 l/m 4,7 km/h (1 Bft) S-SW 202 2,3 C 26,1 C 3,9 km/h (1 Bft)
15.05.2013 12:40 25,5 C 22 % 1008,0 hPa 0,0 l/m 3,9 km/h (1 Bft) O-NO 67 2,2 C 27,2 C 6,6 km/h (2 Bft)
15.05.2013 12:45 24,9 C 21 % 1007,9 hPa 0,0 l/m 4,7 km/h (1 Bft) O-SO 112 1,1 C 27,4 C 4,5 km/h (1 Bft)
15.05.2013 12:50 25,2 C 21 % 1007,9 hPa 0,0 l/m 4,8 km/h (1 Bft) S-SW 202 1,3 C 27,5 C 3,1 km/h (1 Bft)
15.05.2013 12:55 25,0 C 20 % 1007,9 hPa 0,0 l/m 4,2 km/h (1 Bft) O-NO 67 0,5 C 27,6 C 3,5 km/h (1 Bft)
15.05.2013 13:00 25,2 C 21 % 1007,9 hPa 0,0 l/m 4,0 km/h (1 Bft) N-NO 22 1,3 C 27,8 C 3,9 km/h (1 Bft)
15.05.2013 13:05 25,7 C 21 % 1007,8 hPa 0,0 l/m 3,7 km/h (1 Bft) N-NW 337 1,7 C 28,2 C 3,2 km/h (1 Bft)
15.05.2013 13:10 26,4 C 22 % 1007,8 hPa 0,0 l/m 3,5 km/h (1 Bft) NW 315 3,0 C 29,0 C 8,4 km/h (2 Bft)
15.05.2013 13:15 25,8 C 21 % 1007,8 hPa 0,0 l/m 3,7 km/h (1 Bft) S 180 1,8 C 28,9 C 2,6 km/h (1 Bft)
15.05.2013 13:20 26,0 C 22 % 1007,8 hPa 0,0 l/m 5,5 km/h (1 Bft) W-SW 247 2,6 C 28,8 C 16,6 km/h (3 Bft)
15.05.2013 13:25 26,3 C 23 % 1007,9 hPa 0,0 l/m 5,8 km/h (2 Bft) W-NW 292 3,5 C 28,7 C 8,9 km/h (2 Bft)
15.05.2013 13:30 26,6 C 23 % 1007,9 hPa 0,0 l/m 6,3 km/h (2 Bft) S 180 3,8 C 29,1 C 6,3 km/h (2 Bft)
15.05.2013 13:35 25,4 C 21 % 1007,9 hPa 0,0 l/m 6,3 km/h (2 Bft) S 180 1,5 C 28,7 C 14,8 km/h (3 Bft)
15.05.2013 13:40 26,1 C 24 % 1007,9 hPa 0,0 l/m 5,8 km/h (2 Bft) S 180 3,9 C 27,6 C 6,6 km/h (2 Bft)
15.05.2013 13:45 25,9 C 21 % 1007,8 hPa 0,0 l/m 6,3 km/h (2 Bft) S-SW 202 1,9 C 27,8 C 3,5 km/h (1 Bft)
15.05.2013 13:50 26,4 C 24 % 1007,8 hPa 0,0 l/m 4,8 km/h (1 Bft) SW 225 4,2 C 28,0 C 3,9 km/h (1 Bft)
15.05.2013 13:55 25,1 C 20 % 1007,8 hPa 0,0 l/m 2,9 km/h (1 Bft) W 270 0,6 C 28,3 C 7,4 km/h (2 Bft)
15.05.2013 14:00 24,9 C 23 % 1007,8 hPa 0,0 l/m 3,9 km/h (1 Bft) S-SO 157 2,3 C 27,7 C 7,7 km/h (2 Bft)
15.05.2013 14:05 24,5 C 23 % 1007,6 hPa 0,0 l/m 4,8 km/h (1 Bft) SO 135 2,0 C 27,1 C 7,6 km/h (2 Bft)
15.05.2013 14:10 24,2 C 25 % 1007,6 hPa 0,0 l/m 4,7 km/h (1 Bft) S-SO 157 2,9 C 26,4 C 4,5 km/h (1 Bft)
15.05.2013 14:15 24,2 C 25 % 1007,6 hPa 0,0 l/m 4,2 km/h (1 Bft) S 180 2,9 C 26,3 C 5,1 km/h (1 Bft)
15.05.2013 14:20 24,2 C 24 % 1007,6 hPa 0,0 l/m 3,7 km/h (1 Bft) S-SW 202 2,4 C 26,1 C 2,4 km/h (1 Bft)
15.05.2013 14:25 25,2 C 25 % 1007,2 hPa 0,0 l/m 3,4 km/h (1 Bft) S 180 3,8 C 26,4 C 3,4 km/h (1 Bft)
15.05.2013 14:30 24,9 C 22 % 1007,2 hPa 0,0 l/m 3,1 km/h (1 Bft) NO 45 1,7 C 27,4 C 2,7 km/h (1 Bft)
15.05.2013 14:35 24,7 C 21 % 1007,2 hPa 0,0 l/m 2,6 km/h (1 Bft) W-NW 292 0,9 C 28,0 C 3,5 km/h (1 Bft)
15.05.2013 14:40 24,3 C 22 % 1007,2 hPa 0,0 l/m 2,9 km/h (1 Bft) N-NW 337 1,2 C 28,2 C 3,2 km/h (1 Bft)
15.05.2013 14:45 24,6 C 22 % 1007,1 hPa 0,0 l/m 3,5 km/h (1 Bft) N-NW 337 1,5 C 28,1 C 7,9 km/h (2 Bft)
15.05.2013 14:50 23,5 C 24 % 1007,1 hPa 0,0 l/m 3,7 km/h (1 Bft) S-SO 157 1,8 C 27,0 C 0,0 km/h (0 Bft)
15.05.2013 14:55 23,1 C 24 % 1007,1 hPa 0,0 l/m 3,1 km/h (1 Bft) S 180 1,4 C 26,3 C 3,9 km/h (1 Bft)
15.05.2013 15:00 22,1 C 31 % 1007,1 hPa 0,0 l/m 1,8 km/h (1 Bft) S 180 4,2 C 25,2 C 0,0 km/h (0 Bft)
15.05.2013 15:05 21,7 C 30 % 1007,1 hPa 0,0 l/m 1,3 km/h (1 Bft) NO 45 3,4 C 25,0 C 0,0 km/h (0 Bft)
15.05.2013 15:10 21,2 C 33 % 1007,1 hPa 0,0 l/m 0,2 km/h (0 Bft) O-SO 112 4,3 C 24,6 C 0,0 km/h (0 Bft)
15.05.2013 15:15 21,1 C 33 % 1007,1 hPa 0,0 l/m 0,2 km/h (0 Bft) N 360 4,2 C 24,4 C 0,0 km/h (0 Bft)
15.05.2013 15:20 20,7 C 35 % 1007,1 hPa 0,0 l/m 0,2 km/h (0 Bft) O 90 4,7 C 24,1 C 0,0 km/h (0 Bft)
15.05.2013 15:25 20,5 C 38 % 1006,9 hPa 0,0 l/m 0,2 km/h (0 Bft) O-SO 112 5,7 C 24,0 C 0,0 km/h (0 Bft)
15.05.2013 15:30 20,3 C 38 % 1006,9 hPa 0,0 l/m 0,5 km/h (0 Bft) NO 45 5,5 C 23,6 C 4,5 km/h (1 Bft)
15.05.2013 15:35 20,2 C 39 % 1006,9 hPa 0,0 l/m 1,1 km/h (1 Bft) O 90 5,8 C 23,2 C 1,8 km/h (1 Bft)
15.05.2013 15:40 20,1 C 39 % 1006,9 hPa 0,0 l/m 1,3 km/h (1 Bft) O 90 5,7 C 22,6 C 2,7 km/h (1 Bft)
15.05.2013 15:45 20,2 C 41 % 1006,7 hPa 0,0 l/m 0,8 km/h (0 Bft) S-SW 202 6,5 C 22,5 C 0,0 km/h (0 Bft)
15.05.2013 15:50 20,1 C 43 % 1006,7 hPa 0,0 l/m 1,0 km/h (0 Bft) O 90 7,1 C 22,5 C 0,0 km/h (0 Bft)
15.05.2013 15:55 20,4 C 41 % 1006,7 hPa 0,0 l/m 1,4 km/h (1 Bft) S 180 6,7 C 22,6 C 2,4 km/h (1 Bft)
15.05.2013 16:00 20,7 C 40 % 1006,7 hPa 0,0 l/m 1,3 km/h (1 Bft) NW 315 6,6 C 22,8 C 0,0 km/h (0 Bft)
15.05.2013 16:05 21,0 C 41 % 1006,6 hPa 0,0 l/m 0,8 km/h (0 Bft) W 270 7,2 C 23,1 C 0,0 km/h (0 Bft)
15.05.2013 16:10 21,7 C 42 % 1006,6 hPa 0,0 l/m 0,6 km/h (0 Bft) W-NW 292 8,2 C 23,8 C 2,3 km/h (1 Bft)
15.05.2013 16:15 22,2 C 42 % 1006,6 hPa 0,0 l/m 0,8 km/h (0 Bft) W-SW 247 8,7 C 24,6 C 0,0 km/h (0 Bft)
15.05.2013 16:20 22,1 C 34 % 1006,6 hPa 0,0 l/m 2,1 km/h (1 Bft) O-SO 112 5,5 C 25,2 C 3,4 km/h (1 Bft)
15.05.2013 16:25 22,2 C 33 % 1006,4 hPa 0,0 l/m 3,7 km/h (1 Bft) S-SO 157 5,2 C 25,2 C 8,0 km/h (2 Bft)
15.05.2013 16:30 21,5 C 37 % 1006,4 hPa 0,0 l/m 4,7 km/h (1 Bft) W-NW 292 6,2 C 24,4 C 2,6 km/h (1 Bft)
15.05.2013 16:35 21,5 C 38 % 1006,4 hPa 0,0 l/m 4,7 km/h (1 Bft) S-SO 157 6,6 C 24,1 C 6,0 km/h (2 Bft)
15.05.2013 16:40 21,6 C 36 % 1006,4 hPa 0,0 l/m 3,7 km/h (1 Bft) S-SW 202 5,9 C 23,9 C 2,1 km/h (1 Bft)
15.05.2013 16:45 21,4 C 34 % 1006,5 hPa 0,0 l/m 4,2 km/h (1 Bft) S 180 4,9 C 23,8 C 4,3 km/h (1 Bft)
15.05.2013 16:50 20,9 C 36 % 1006,5 hPa 0,0 l/m 4,3 km/h (1 Bft) SO 135 5,3 C 23,3 C 3,4 km/h (1 Bft)
15.05.2013 16:55 20,7 C 36 % 1006,5 hPa 0,0 l/m 4,2 km/h (1 Bft) S 180 5,1 C 23,0 C 2,3 km/h (1 Bft)
15.05.2013 17:00 20,9 C 37 % 1006,5 hPa 0,0 l/m 3,4 km/h (1 Bft) S-SW 202 5,7 C 23,0 C 4,8 km/h (1 Bft)
15.05.2013 17:05 21,0 C 37 % 1006,3 hPa 0,0 l/m 3,2 km/h (1 Bft) O 90 5,8 C 23,1 C 2,9 km/h (1 Bft)
15.05.2013 17:10 21,2 C 38 % 1006,3 hPa 0,0 l/m 2,7 km/h (1 Bft) S 180 6,3 C 23,3 C 2,6 km/h (1 Bft)
15.05.2013 17:15 21,5 C 36 % 1006,3 hPa 0,0 l/m 2,9 km/h (1 Bft) S 180 5,8 C 23,6 C 5,5 km/h (1 Bft)
15.05.2013 17:20 21,8 C 35 % 1006,3 hPa 0,0 l/m 3,7 km/h (1 Bft) S 180 5,7 C 24,6 C 6,4 km/h (2 Bft)
15.05.2013 17:25 21,9 C 35 % 1006,3 hPa 0,0 l/m 3,7 km/h (1 Bft) S-SO 157 5,7 C 25,2 C 2,3 km/h (1 Bft)
15.05.2013 17:30 21,2 C 34 % 1006,3 hPa 0,0 l/m 4,3 km/h (1 Bft) SO 135 4,7 C 24,9 C 7,2 km/h (2 Bft)
15.05.2013 17:35 20,8 C 35 % 1006,3 hPa 0,0 l/m 4,5 km/h (1 Bft) S 180 4,8 C 24,1 C 5,5 km/h (1 Bft)
15.05.2013 17:40 20,7 C 37 % 1006,3 hPa 0,0 l/m 3,5 km/h (1 Bft) O-SO 112 5,5 C 23,7 C 3,5 km/h (1 Bft)
15.05.2013 17:45 20,7 C 37 % 1006,4 hPa 0,0 l/m 2,1 km/h (1 Bft) S 180 5,5 C 24,2 C 0,0 km/h (0 Bft)
15.05.2013 17:50 20,7 C 37 % 1006,4 hPa 0,0 l/m 1,9 km/h (1 Bft) S 180 5,5 C 24,7 C 5,8 km/h (2 Bft)
15.05.2013 17:55 20,5 C 36 % 1006,4 hPa 0,0 l/m 2,4 km/h (1 Bft) S-SW 202 4,9 C 24,4 C 0,0 km/h (0 Bft)
15.05.2013 18:00 20,1 C 38 % 1006,4 hPa 0,0 l/m 1,8 km/h (1 Bft) S 180 5,3 C 23,9 C 1,9 km/h (1 Bft)
15.05.2013 18:05 19,9 C 39 % 1006,4 hPa 0,0 l/m 1,0 km/h (0 Bft) S-SO 157 5,5 C 23,6 C 1,6 km/h (1 Bft)
15.05.2013 18:10 19,7 C 38 % 1006,4 hPa 0,0 l/m 2,4 km/h (1 Bft) S 180 5,0 C 23,0 C 2,4 km/h (1 Bft)
15.05.2013 18:15 19,3 C 39 % 1006,4 hPa 0,0 l/m 2,4 km/h (1 Bft) S 180 5,0 C 22,5 C 0,0 km/h (0 Bft)
15.05.2013 18:20 19,2 C 39 % 1006,4 hPa 0,0 l/m 1,3 km/h (1 Bft) O 90 4,9 C 22,0 C 2,4 km/h (1 Bft)
15.05.2013 18:25 19,2 C 40 % 1006,4 hPa 0,0 l/m 1,0 km/h (0 Bft) O 90 5,3 C 21,7 C 2,1 km/h (1 Bft)
15.05.2013 18:30 19,0 C 40 % 1006,4 hPa 0,0 l/m 1,1 km/h (1 Bft) O-NO 67 5,1 C 21,5 C 2,7 km/h (1 Bft)
15.05.2013 18:35 19,1 C 40 % 1006,4 hPa 0,0 l/m 0,8 km/h (0 Bft) O 90 5,2 C 21,2 C 0,0 km/h (0 Bft)
15.05.2013 18:40 19,0 C 42 % 1006,4 hPa 0,0 l/m 0,3 km/h (0 Bft) SO 135 5,8 C 21,6 C 1,9 km/h (1 Bft)
15.05.2013 18:45 19,0 C 44 % 1006,1 hPa 0,0 l/m 0,5 km/h (0 Bft) NO 45 6,5 C 21,9 C 3,2 km/h (1 Bft)
15.05.2013 18:50 19,0 C 46 % 1006,1 hPa 0,0 l/m 0,5 km/h (0 Bft) O 90 7,1 C 21,7 C 0,0 km/h (0 Bft)
15.05.2013 18:55 18,9 C 44 % 1006,1 hPa 0,0 l/m 0,5 km/h (0 Bft) O 90 6,4 C 21,4 C 2,1 km/h (1 Bft)
15.05.2013 19:00 18,6 C 44 % 1006,1 hPa 0,0 l/m 0,2 km/h (0 Bft) O-SO 112 6,1 C 20,9 C 0,0 km/h (0 Bft)
15.05.2013 19:05 18,4 C 45 % 1006,1 hPa 0,0 l/m 0,3 km/h (0 Bft) O 90 6,3 C 20,7 C 0,0 km/h (0 Bft)
15.05.2013 19:10 18,4 C 46 % 1006,1 hPa 0,0 l/m 0,2 km/h (0 Bft) O-SO 112 6,6 C 20,4 C 0,0 km/h (0 Bft)
15.05.2013 19:15 18,2 C 46 % 1006,1 hPa 0,0 l/m 0,5 km/h (0 Bft) O 90 6,4 C 20,4 C 2,3 km/h (1 Bft)
15.05.2013 19:20 18,0 C 46 % 1006,1 hPa 0,0 l/m 0,8 km/h (0 Bft) NO 45 6,2 C 20,0 C 1,8 km/h (1 Bft)
15.05.2013 19:25 18,0 C 45 % 1005,9 hPa 0,0 l/m 0,6 km/h (0 Bft) O-NO 67 5,9 C 19,8 C 0,0 km/h (0 Bft)
15.05.2013 19:30 17,9 C 47 % 1005,9 hPa 0,0 l/m 0,2 km/h (0 Bft) S-SO 157 6,4 C 20,0 C 0,0 km/h (0 Bft)
15.05.2013 19:35 17,6 C 46 % 1005,9 hPa 0,0 l/m 0,2 km/h (0 Bft) O 90 5,8 C 19,8 C 0,0 km/h (0 Bft)
15.05.2013 19:40 17,5 C 45 % 1005,9 hPa 0,0 l/m 0,3 km/h (0 Bft) NO 45 5,4 C 19,2 C 2,1 km/h (1 Bft)
15.05.2013 19:45 17,3 C 45 % 1006,1 hPa 0,0 l/m 0,3 km/h (0 Bft) O-NO 67 5,3 C 18,7 C 0,0 km/h (0 Bft)
15.05.2013 19:50 17,2 C 45 % 1006,1 hPa 0,0 l/m 0,6 km/h (0 Bft) NO 45 5,2 C 18,2 C 0,0 km/h (0 Bft)
15.05.2013 19:55 17,0 C 45 % 1006,1 hPa 0,0 l/m 0,8 km/h (0 Bft) O-NO 67 5,0 C 17,9 C 3,2 km/h (1 Bft)
15.05.2013 20:00 16,9 C 44 % 1006,1 hPa 0,0 l/m 2,3 km/h (1 Bft) O-NO 67 4,6 C 17,5 C 3,9 km/h (1 Bft)
15.05.2013 20:05 16,8 C 44 % 1006,1 hPa 0,0 l/m 3,1 km/h (1 Bft) O 90 4,5 C 17,2 C 2,4 km/h (1 Bft)
15.05.2013 20:10 16,5 C 45 % 1006,1 hPa 0,0 l/m 2,1 km/h (1 Bft) NO 45 4,5 C 16,9 C 2,4 km/h (1 Bft)
15.05.2013 20:15 16,5 C 44 % 1006,1 hPa 0,0 l/m 1,9 km/h (1 Bft) O 90 4,2 C 16,7 C 3,2 km/h (1 Bft)
15.05.2013 20:20 15,8 C 49 % 1006,1 hPa 0,0 l/m 1,6 km/h (1 Bft) O-SO 112 5,1 C 16,5 C 0,0 km/h (0 Bft)
15.05.2013 20:25 15,7 C 49 % 1006,0 hPa 0,0 l/m 1,3 km/h (1 Bft) O-NO 67 5,0 C 16,2 C 0,0 km/h (0 Bft)
15.05.2013 20:30 15,9 C 47 % 1006,0 hPa 0,0 l/m 1,1 km/h (1 Bft) O 90 4,6 C 15,8 C 1,8 km/h (1 Bft)
15.05.2013 20:35 15,8 C 47 % 1006,0 hPa 0,0 l/m 1,6 km/h (1 Bft) O 90 4,5 C 15,6 C 3,2 km/h (1 Bft)
15.05.2013 20:40 15,5 C 50 % 1006,0 hPa 0,0 l/m 2,6 km/h (1 Bft) S 180 5,1 C 15,5 C 1,6 km/h (1 Bft)
15.05.2013 20:45 15,3 C 51 % 1005,8 hPa 0,0 l/m 2,4 km/h (1 Bft) O 90 5,2 C 15,5 C 2,9 km/h (1 Bft)
15.05.2013 20:50 15,1 C 53 % 1005,8 hPa 0,0 l/m 2,7 km/h (1 Bft) NO 45 5,6 C 15,2 C 4,0 km/h (1 Bft)
15.05.2013 20:55 15,1 C 52 % 1005,8 hPa 0,0 l/m 3,5 km/h (1 Bft) NO 45 5,3 C 15,1 C 4,0 km/h (1 Bft)
15.05.2013 21:00 14,4 C 56 % 1005,8 hPa 0,0 l/m 1,9 km/h (1 Bft) O-NO 67 5,7 C 14,9 C 1,9 km/h (1 Bft)
15.05.2013 21:05 14,2 C 56 % 1005,8 hPa 0,0 l/m 0,8 km/h (0 Bft) O-NO 67 5,6 C 14,6 C 1,8 km/h (1 Bft)
15.05.2013 21:10 14,2 C 57 % 1005,8 hPa 0,0 l/m 1,3 km/h (1 Bft) O 90 5,8 C 14,5 C 2,7 km/h (1 Bft)
15.05.2013 21:15 14,7 C 56 % 1005,8 hPa 0,0 l/m 2,4 km/h (1 Bft) W-SW 247 6,0 C 14,5 C 3,9 km/h (1 Bft)
15.05.2013 21:20 14,8 C 56 % 1005,8 hPa 0,0 l/m 2,4 km/h (1 Bft) O 90 6,1 C 14,6 C 0,0 km/h (0 Bft)
15.05.2013 21:25 14,1 C 58 % 1005,9 hPa 0,0 l/m 1,3 km/h (1 Bft) O-NO 67 6,0 C 14,6 C 2,4 km/h (1 Bft)
15.05.2013 21:30 14,3 C 57 % 1005,9 hPa 0,0 l/m 1,6 km/h (1 Bft) O-NO 67 5,9 C 14,3 C 2,6 km/h (1 Bft)
15.05.2013 21:35 13,9 C 59 % 1005,9 hPa 0,0 l/m 1,6 km/h (1 Bft) O 90 6,0 C 14,2 C 0,0 km/h (0 Bft)
15.05.2013 21:40 14,3 C 57 % 1005,9 hPa 0,0 l/m 2,1 km/h (1 Bft) O 90 5,9 C 13,9 C 5,0 km/h (1 Bft)
15.05.2013 21:45 14,6 C 56 % 1006,2 hPa 0,0 l/m 3,4 km/h (1 Bft) NO 45 5,9 C 14,0 C 4,3 km/h (1 Bft)
15.05.2013 21:50 14,2 C 58 % 1006,2 hPa 0,0 l/m 3,4 km/h (1 Bft) O 90 6,1 C 14,0 C 2,1 km/h (1 Bft)
15.05.2013 21:55 14,2 C 57 % 1006,2 hPa 0,0 l/m 2,9 km/h (1 Bft) O-NO 67 5,8 C 13,9 C 4,3 km/h (1 Bft)
15.05.2013 22:00 14,1 C 57 % 1006,2 hPa 0,0 l/m 2,7 km/h (1 Bft) O-SO 112 5,7 C 13,9 C 0,0 km/h (0 Bft)
15.05.2013 22:05 13,7 C 59 % 1006,0 hPa 0,0 l/m 1,9 km/h (1 Bft) O 90 5,8 C 13,8 C 2,3 km/h (1 Bft)
15.05.2013 22:10 13,6 C 59 % 1006,0 hPa 0,0 l/m 1,4 km/h (1 Bft) O-NO 67 5,7 C 13,7 C 2,7 km/h (1 Bft)
15.05.2013 22:15 13,1 C 61 % 1006,0 hPa 0,0 l/m 1,6 km/h (1 Bft) O 90 5,8 C 13,5 C 2,3 km/h (1 Bft)
15.05.2013 22:20 12,9 C 62 % 1006,0 hPa 0,0 l/m 0,5 km/h (0 Bft) S-SO 157 5,8 C 13,4 C 0,0 km/h (0 Bft)
15.05.2013 22:25 12,8 C 62 % 1006,2 hPa 0,0 l/m 0,2 km/h (0 Bft) O-SO 112 5,7 C 13,2 C 0,0 km/h (0 Bft)
15.05.2013 22:30 13,1 C 60 % 1006,2 hPa 0,0 l/m 0,5 km/h (0 Bft) NO 45 5,5 C 13,0 C 2,1 km/h (1 Bft)
15.05.2013 22:35 13,1 C 59 % 1006,2 hPa 0,0 l/m 1,0 km/h (0 Bft) O 90 5,3 C 13,0 C 3,4 km/h (1 Bft)
15.05.2013 22:40 13,1 C 57 % 1006,2 hPa 0,0 l/m 2,3 km/h (1 Bft) O 90 4,8 C 12,7 C 3,9 km/h (1 Bft)
15.05.2013 22:45 12,9 C 58 % 1006,0 hPa 0,0 l/m 2,9 km/h (1 Bft) O-SO 112 4,8 C 12,6 C 4,2 km/h (1 Bft)
15.05.2013 22:50 12,5 C 60 % 1006,0 hPa 0,0 l/m 3,1 km/h (1 Bft) O 90 5,0 C 12,3 C 3,7 km/h (1 Bft)
15.05.2013 22:55 12,2 C 60 % 1006,0 hPa 0,0 l/m 3,2 km/h (1 Bft) O 90 4,7 C 12,0 C 4,5 km/h (1 Bft)
15.05.2013 23:00 12,1 C 60 % 1006,0 hPa 0,0 l/m 3,9 km/h (1 Bft) O 90 4,6 C 11,7 C 5,6 km/h (1 Bft)
15.05.2013 23:05 12,0 C 59 % 1005,9 hPa 0,0 l/m 4,5 km/h (1 Bft) O-SO 112 4,2 C 11,5 C 5,5 km/h (1 Bft)
15.05.2013 23:10 11,7 C 61 % 1005,9 hPa 0,0 l/m 5,3 km/h (1 Bft) O-NO 67 4,4 C 11,2 C 6,1 km/h (2 Bft)
15.05.2013 23:15 11,6 C 62 % 1005,9 hPa 0,0 l/m 5,8 km/h (2 Bft) O 90 4,6 C 11,1 C 5,5 km/h (1 Bft)
15.05.2013 23:20 11,4 C 62 % 1005,9 hPa 0,0 l/m 5,6 km/h (1 Bft) O-NO 67 4,4 C 11,0 C 5,1 km/h (1 Bft)
15.05.2013 23:25 11,3 C 62 % 1005,9 hPa 0,0 l/m 4,8 km/h (1 Bft) NO 45 4,3 C 11,1 C 3,4 km/h (1 Bft)
15.05.2013 23:30 11,3 C 60 % 1005,9 hPa 0,0 l/m 3,2 km/h (1 Bft) O-SO 112 3,8 C 11,0 C 0,0 km/h (0 Bft)
15.05.2013 23:35 10,6 C 62 % 1005,9 hPa 0,0 l/m 1,9 km/h (1 Bft) S 180 3,6 C 10,8 C 0,0 km/h (0 Bft)
15.05.2013 23:40 10,7 C 65 % 1005,9 hPa 0,0 l/m 1,4 km/h (1 Bft) NO 45 4,4 C 10,3 C 3,2 km/h (1 Bft)
15.05.2013 23:45 11,1 C 64 % 1006,0 hPa 0,0 l/m 2,9 km/h (1 Bft) O 90 4,6 C 10,3 C 5,8 km/h (2 Bft)
15.05.2013 23:52 10,8 C 64 % 1006,0 hPa 0,0 l/m 4,2 km/h (1 Bft) O-SO 112 4,3 C 10,6 C 3,1 km/h (1 Bft)
15.05.2013 23:55 10,3 C 66 % 1006,0 hPa 0,0 l/m 4,2 km/h (1 Bft) O-SO 112 4,2 C 10,5 C 5,0 km/h (1 Bft)
_ Min-Zeit 05:35 13:55 21:20 - 04:05 - - 10:45 05:45 23:35
Minimum _ 4,6 C 20 % 1005,8 hPa - 0,0 km/h (0 Bft) - - 0,2 C 4,6 C 0,0 km/h (0 Bft)
_ Max-Zeit 13:30 04:55 00:00 23:55 12:15 - - 06:50 13:30 13:20
Maximum _ 26,6 C 94 % 1009,9 hPa 0,0 l/m 6,8 km/h
O-SO (2 Bft)
- - 9,6 C 29,1 C 16,6 km/h
W-SW (3 Bft)
Durchschnitt _ 16,4 C 53 % 1007,2 hPa #0,0 l/m 2,1 km/h (1 Bft) S - 4,8 C 17,2 C 2,8 km/h (1 Bft)